Time,TemperatureF,DewpointF,PressureIn,WindDirection,WindDirectionDegrees,WindSpeedMPH,WindSpeedGustMPH,Humidity,HourlyPrecipIn,Conditions,Clouds,dailyrainin,SoftwareType,DateUTC
2013-03-13 00:03:00,33.0,30.0,30.02,South,182,8.0,11.0,87,0.00,,,0.01,,2013-03-13 04:03:00,
2013-03-13 00:13:00,33.0,30.0,30.02,South,182,8.0,11.0,87,0.00,,,0.01,,2013-03-13 04:13:00,
2013-03-13 00:22:00,33.0,30.0,30.02,South,180,6.0,11.0,88,0.00,,,0.01,,2013-03-13 04:22:00,
2013-03-13 00:32:00,33.0,30.0,30.02,SSW,205,7.0,12.0,88,0.00,,,0.01,,2013-03-13 04:32:00,
2013-03-13 00:43:00,33.0,30.0,30.02,SSW,205,7.0,12.0,88,0.00,,,0.01,,2013-03-13 04:43:00,
2013-03-13 00:53:00,33.0,30.0,30.02,SSW,213,11.0,16.0,87,0.00,,,0.01,,2013-03-13 04:53:00,
2013-03-13 01:02:00,33.0,29.0,30.02,South,187,6.0,17.0,86,0.00,,,0.01,,2013-03-13 05:02:00,
2013-03-13 01:12:00,33.0,29.0,30.02,South,187,6.0,17.0,86,0.00,,,0.01,,2013-03-13 05:12:00,
2013-03-13 01:22:00,32.0,28.0,30.02,SSW,195,7.0,13.0,86,0.00,,,0.01,,2013-03-13 05:22:00,
2013-03-13 01:32:00,32.0,28.0,30.02,SSW,192,5.0,11.0,85,0.00,,,0.01,,2013-03-13 05:32:00,
2013-03-13 01:42:00,32.0,28.0,30.02,SSW,192,5.0,11.0,85,0.00,,,0.01,,2013-03-13 05:42:00,
2013-03-13 01:52:00,33.0,29.0,30.02,South,191,6.0,20.0,84,0.00,,,0.01,,2013-03-13 05:52:00,
2013-03-13 02:02:00,33.0,29.0,30.01,SSW,212,7.0,13.0,84,0.00,,,0.01,,2013-03-13 06:02:00,
2013-03-13 02:12:00,33.0,29.0,30.01,SSW,212,7.0,13.0,84,0.00,,,0.01,,2013-03-13 06:12:00,
2013-03-13 02:23:00,33.0,29.0,30.01,SSW,213,10.0,15.0,84,0.00,,,0.01,,2013-03-13 06:23:00,
2013-03-13 02:32:00,33.0,29.0,30.01,South,180,9.0,16.0,84,0.00,,,0.01,,2013-03-13 06:32:00,
2013-03-13 02:42:00,33.0,29.0,30.01,South,180,9.0,16.0,84,0.00,,,0.01,,2013-03-13 06:42:00,
2013-03-13 02:53:00,33.0,29.0,30.01,South,188,9.0,14.0,84,0.00,,,0.01,,2013-03-13 06:53:00,
2013-03-13 03:02:00,33.0,29.0,30.01,SSW,202,7.0,13.0,84,0.00,,,0.01,,2013-03-13 07:02:00,
2013-03-13 03:12:00,33.0,29.0,30.01,SSW,202,7.0,13.0,84,0.00,,,0.01,,2013-03-13 07:12:00,
2013-03-13 03:22:00,32.0,28.0,30.00,SSW,203,9.0,13.0,85,0.00,,,0.01,,2013-03-13 07:22:00,
2013-03-13 03:32:00,32.0,28.0,30.00,SSW,199,8.0,12.0,86,0.00,,,0.01,,2013-03-13 07:32:00,
2013-03-13 03:42:00,32.0,28.0,30.00,SSW,199,8.0,12.0,86,0.00,,,0.01,,2013-03-13 07:42:00,
2013-03-13 03:53:00,31.0,28.0,30.00,SSW,209,8.0,12.0,88,0.00,,,0.01,,2013-03-13 07:53:00,
2013-03-13 04:03:00,31.0,28.0,30.00,SW,224,9.0,17.0,87,0.00,,,0.01,,2013-03-13 08:03:00,
2013-03-13 04:12:00,31.0,28.0,30.00,SW,224,9.0,17.0,87,0.00,,,0.01,,2013-03-13 08:12:00,
2013-03-13 04:22:00,31.0,27.0,30.00,SSW,200,12.0,17.0,85,0.00,,,0.01,,2013-03-13 08:22:00,
2013-03-13 04:32:00,31.0,26.0,30.00,SW,223,13.0,22.0,82,0.00,,,0.01,,2013-03-13 08:32:00,
2013-03-13 04:43:00,31.0,26.0,30.00,SW,223,13.0,22.0,82,0.00,,,0.01,,2013-03-13 08:43:00,
2013-03-13 04:54:00,31.0,26.0,30.00,South,179,9.0,20.0,82,0.00,,,0.00,,2013-03-13 08:54:00,
2013-03-13 05:02:00,30.0,25.0,30.00,SW,219,7.0,16.0,81,0.00,,,0.00,,2013-03-13 09:02:00,
2013-03-13 05:12:00,30.0,25.0,30.00,SW,219,7.0,16.0,81,0.00,,,0.00,,2013-03-13 09:12:00,
2013-03-13 05:22:00,30.0,25.0,30.01,SW,214,12.0,20.0,81,0.00,,,0.00,,2013-03-13 09:22:00,
2013-03-13 05:32:00,29.0,24.0,30.01,SW,215,9.0,21.0,81,0.00,,,0.00,,2013-03-13 09:32:00,
2013-03-13 05:42:00,29.0,24.0,30.01,SW,215,9.0,21.0,81,0.00,,,0.00,,2013-03-13 09:42:00,
2013-03-13 05:52:00,29.0,24.0,30.02,SW,229,11.0,16.0,82,0.00,,,0.00,,2013-03-13 09:52:00,
2013-03-13 06:02:00,29.0,24.0,30.02,WSW,250,12.0,19.0,82,0.00,,,0.00,,2013-03-13 10:02:00,
2013-03-13 06:12:00,29.0,24.0,30.02,WSW,250,12.0,19.0,82,0.00,,,0.00,,2013-03-13 10:12:00,
2013-03-13 06:22:00,29.0,24.0,30.03,SSW,197,6.0,16.0,81,0.00,,,0.00,,2013-03-13 10:22:00,
2013-03-13 06:32:00,28.0,23.0,30.03,SW,226,9.0,21.0,81,0.00,,,0.00,,2013-03-13 10:32:00,
2013-03-13 06:42:00,28.0,23.0,30.03,SW,226,9.0,21.0,81,0.00,,,0.00,,2013-03-13 10:42:00,
2013-03-13 06:52:00,28.0,23.0,30.04,SW,222,12.0,18.0,81,0.00,,,0.00,,2013-03-13 10:52:00,
2013-03-13 07:02:00,28.0,24.0,30.04,West,259,9.0,22.0,83,0.00,,,0.00,,2013-03-13 11:02:00,
2013-03-13 07:12:00,28.0,24.0,30.04,West,259,9.0,22.0,83,0.00,,,0.00,,2013-03-13 11:12:00,
2013-03-13 07:22:00,28.0,24.0,30.04,SW,217,12.0,19.0,85,0.00,,,0.00,,2013-03-13 11:22:00,
2013-03-13 07:32:00,28.0,24.0,30.04,SW,220,13.0,21.0,86,0.00,,,0.00,,2013-03-13 11:32:00,
2013-03-13 07:42:00,28.0,24.0,30.04,SW,220,13.0,21.0,86,0.00,,,0.00,,2013-03-13 11:42:00,
2013-03-13 07:53:00,27.0,24.0,30.04,SW,234,14.0,19.0,87,0.00,,,0.00,,2013-03-13 11:53:00,
2013-03-13 08:02:00,27.0,24.0,30.05,WSW,252,11.0,20.0,88,0.00,,,0.00,,2013-03-13 12:02:00,
2013-03-13 08:12:00,27.0,24.0,30.05,WSW,252,11.0,20.0,88,0.00,,,0.00,,2013-03-13 12:12:00,
2013-03-13 08:22:00,27.0,24.0,30.06,SW,216,9.0,18.0,89,0.00,,,0.00,,2013-03-13 12:22:00,
2013-03-13 08:32:00,27.0,24.0,30.06,SW,225,11.0,19.0,89,0.00,,,0.00,,2013-03-13 12:32:00,
2013-03-13 08:42:00,27.0,24.0,30.06,SW,225,11.0,19.0,89,0.00,,,0.00,,2013-03-13 12:42:00,
2013-03-13 08:53:00,28.0,25.0,30.07,WSW,246,10.0,17.0,87,0.00,,,0.00,,2013-03-13 12:53:00,
2013-03-13 09:02:00,28.0,24.0,30.07,WSW,250,11.0,20.0,85,0.00,,,0.00,,2013-03-13 13:02:00,
2013-03-13 09:12:00,28.0,24.0,30.07,WSW,250,11.0,20.0,85,0.00,,,0.00,,2013-03-13 13:12:00,
2013-03-13 09:22:00,28.0,24.0,30.07,SW,222,13.0,19.0,84,0.00,,,0.00,,2013-03-13 13:22:00,
2013-03-13 09:33:00,29.0,25.0,30.07,WSW,254,9.0,20.0,83,0.00,,,0.00,,2013-03-13 13:33:00,
2013-03-13 09:43:00,29.0,25.0,30.07,WSW,254,9.0,20.0,83,0.00,,,0.00,,2013-03-13 13:43:00,
2013-03-13 09:53:00,29.0,24.0,30.08,SW,236,7.0,17.0,82,0.00,,,0.00,,2013-03-13 13:53:00,
2013-03-13 10:02:00,29.0,24.0,30.09,SSW,206,8.0,24.0,81,0.00,,,0.00,,2013-03-13 14:02:00,
2013-03-13 10:12:00,29.0,24.0,30.09,SSW,206,8.0,24.0,81,0.00,,,0.00,,2013-03-13 14:12:00,
2013-03-13 10:22:00,29.0,24.0,30.10,SW,223,8.0,18.0,82,0.00,,,0.00,,2013-03-13 14:22:00,
2013-03-13 10:33:00,29.0,25.0,30.11,SW,228,10.0,22.0,83,0.00,,,0.00,,2013-03-13 14:33:00,
2013-03-13 10:42:00,29.0,25.0,30.11,SW,228,10.0,22.0,83,0.00,,,0.00,,2013-03-13 14:42:00,
2013-03-13 10:53:00,27.0,24.0,30.11,WSW,240,6.0,18.0,88,0.00,,,0.00,,2013-03-13 14:53:00,
2013-03-13 11:03:00,27.0,24.0,30.12,West,277,10.0,15.0,89,0.00,,,0.00,,2013-03-13 15:03:00,
2013-03-13 11:12:00,27.0,24.0,30.12,West,277,10.0,15.0,89,0.00,,,0.00,,2013-03-13 15:12:00,
2013-03-13 11:22:00,27.0,24.0,30.13,WSW,238,10.0,16.0,87,0.00,,,0.00,,2013-03-13 15:22:00,
2013-03-13 11:32:00,28.0,25.0,30.13,WSW,246,6.0,14.0,88,0.00,,,0.00,,2013-03-13 15:32:00,
2013-03-13 11:43:00,28.0,25.0,30.13,WSW,246,6.0,14.0,88,0.00,,,0.00,,2013-03-13 15:43:00,
2013-03-13 11:53:00,31.0,27.0,30.14,WSW,244,6.0,17.0,84,0.00,,,0.00,,2013-03-13 15:53:00,
2013-03-13 12:03:00,32.0,27.0,30.14,WSW,251,11.0,20.0,81,0.00,,,0.00,,2013-03-13 16:03:00,
2013-03-13 12:12:00,32.0,27.0,30.14,WSW,251,11.0,20.0,81,0.00,,,0.00,,2013-03-13 16:12:00,
2013-03-13 12:22:00,34.0,27.0,30.14,West,261,12.0,21.0,76,0.01,,,0.01,,2013-03-13 16:22:00,
2013-03-13 12:32:00,34.0,27.0,30.15,West,263,12.0,18.0,74,0.01,,,0.01,,2013-03-13 16:32:00,
2013-03-13 12:42:00,34.0,27.0,30.15,West,263,12.0,18.0,74,0.01,,,0.01,,2013-03-13 16:42:00,
2013-03-13 12:52:00,31.0,24.0,30.16,WSW,244,10.0,18.0,75,0.01,,,0.01,,2013-03-13 16:52:00,
2013-03-13 13:02:00,32.0,26.0,30.16,West,264,4.0,20.0,77,0.02,,,0.02,,2013-03-13 17:02:00,
2013-03-13 13:12:00,32.0,26.0,30.16,West,264,4.0,20.0,77,0.02,,,0.02,,2013-03-13 17:12:00,
2013-03-13 13:22:00,32.0,24.0,30.17,WSW,250,10.0,24.0,73,0.01,,,0.02,,2013-03-13 17:22:00,
2013-03-13 13:32:00,33.0,26.0,30.16,WSW,250,10.0,19.0,76,0.01,,,0.02,,2013-03-13 17:32:00,
2013-03-13 13:42:00,33.0,26.0,30.16,WSW,250,10.0,19.0,76,0.01,,,0.02,,2013-03-13 17:42:00,
2013-03-13 13:53:00,32.0,23.0,30.17,WSW,240,9.0,16.0,70,0.01,,,0.02,,2013-03-13 17:53:00,
2013-03-13 14:02:00,31.0,22.0,30.18,SW,234,10.0,23.0,70,0.00,,,0.02,,2013-03-13 18:02:00,
2013-03-13 14:12:00,31.0,22.0,30.18,SW,234,10.0,23.0,70,0.00,,,0.02,,2013-03-13 18:12:00,
2013-03-13 14:22:00,31.0,23.0,30.18,WNW,287,7.0,19.0,72,0.00,,,0.02,,2013-03-13 18:22:00,
2013-03-13 14:33:00,31.0,23.0,30.19,WSW,246,10.0,17.0,72,0.00,,,0.02,,2013-03-13 18:33:00,
2013-03-13 14:42:00,31.0,23.0,30.19,WSW,246,10.0,17.0,72,0.00,,,0.02,,2013-03-13 18:42:00,
2013-03-13 14:52:00,31.0,23.0,30.19,South,179,5.0,17.0,72,0.00,,,0.02,,2013-03-13 18:52:00,
2013-03-13 15:03:00,31.0,23.0,30.19,WNW,287,8.0,17.0,71,0.00,,,0.02,,2013-03-13 19:03:00,
2013-03-13 15:12:00,31.0,23.0,30.19,WNW,287,8.0,17.0,71,0.00,,,0.02,,2013-03-13 19:12:00,
2013-03-13 15:22:00,31.0,23.0,30.19,WSW,252,7.0,16.0,73,0.00,,,0.02,,2013-03-13 19:22:00,
2013-03-13 15:32:00,30.0,22.0,30.19,SSW,201,10.0,22.0,73,0.00,,,0.02,,2013-03-13 19:32:00,
2013-03-13 15:43:00,30.0,22.0,30.19,SSW,201,10.0,22.0,73,0.00,,,0.02,,2013-03-13 19:43:00,
2013-03-13 15:53:00,30.0,23.0,30.20,SSW,213,13.0,20.0,75,0.00,,,0.02,,2013-03-13 19:53:00,
2013-03-13 16:02:00,30.0,23.0,30.20,SSW,213,13.0,20.0,75,0.00,,,0.02,,2013-03-13 20:02:00,
2013-03-13 16:12:00,30.0,23.0,30.20,SSW,213,13.0,20.0,75,0.00,,,0.02,,2013-03-13 20:12:00,
2013-03-13 16:22:00,30.0,23.0,30.20,SSW,213,13.0,20.0,75,0.00,,,0.02,,2013-03-13 20:22:00,
2013-03-13 16:32:00,30.0,23.0,30.20,SSW,213,13.0,20.0,75,0.00,,,0.02,,2013-03-13 20:32:00,
2013-03-13 21:53:00,26.0,19.0,30.29,West,264,6.0,11.0,75,0.00,,,0.02,,2013-03-14 01:53:00,
2013-03-13 22:02:00,26.0,19.0,30.30,WSW,242,5.0,12.0,76,0.00,,,0.02,,2013-03-14 02:02:00,
2013-03-13 22:12:00,26.0,19.0,30.30,WSW,242,5.0,12.0,76,0.00,,,0.02,,2013-03-14 02:12:00,
2013-03-13 22:22:00,26.0,19.0,30.30,West,272,4.0,13.0,76,0.00,,,0.02,,2013-03-14 02:22:00,
2013-03-13 22:32:00,26.0,19.0,30.31,WSW,243,4.0,11.0,76,0.00,,,0.02,,2013-03-14 02:32:00,
2013-03-13 22:42:00,26.0,19.0,30.31,WSW,243,4.0,11.0,76,0.00,,,0.02,,2013-03-14 02:42:00,
2013-03-13 22:52:00,26.0,19.0,30.31,WSW,243,4.0,11.0,76,0.00,,,0.02,,2013-03-14 02:52:00,
2013-03-13 23:02:00,26.0,19.0,30.31,WNW,286,6.0,12.0,76,0.00,,,0.02,,2013-03-14 03:02:00,
2013-03-13 23:12:00,26.0,19.0,30.31,WNW,286,6.0,12.0,76,0.00,,,0.02,,2013-03-14 03:12:00,
2013-03-13 23:23:00,25.0,19.0,30.32,WSW,249,5.0,11.0,77,0.00,,,0.02,,2013-03-14 03:23:00,
2013-03-13 23:32:00,25.0,19.0,30.32,West,270,4.0,11.0,77,0.00,,,0.02,,2013-03-14 03:32:00,
2013-03-13 23:42:00,25.0,19.0,30.32,West,270,4.0,11.0,77,0.00,,,0.02,,2013-03-14 03:42:00,
2013-03-13 23:53:00,25.0,19.0,30.32,SW,236,4.0,10.0,76,0.00,,,0.02,,2013-03-14 03:53:00,